View from above orbital plane
|
View from above satellite
|
Ground track
|
The orbit data is extracted from the following two-line orbital elements,
1 16182U 85097B 21026.50717562 .00000028 00000-0 38033-4 0 9992
2 16182 71.0018 112.1855 0009372 234.5322 211.1677 14.16251564823016
Epoch (UTC): | 26 January 2021 12:10:19 |
Eccentricity: | 0.0009372 |
inclination: | 71.0018° |
perigee height: | 831 km |
apogee height: | 845 km |
right ascension of ascending node: | 112.1855° |
argument of perigee: | 234.5322° |
revolutions per day: | 14.16251564 |
mean anomaly at epoch: | 211.1677° |
orbit number at epoch: | 82301 |
The dashed part of the orbit path shows where the satellite is in the earth's shadow,
|
|